sat.trackr.live / text

‹ back to catalog

STARLINK-36464

NORAD 67428 · 2026-005AA

PAYLOAD ACTIVE UNKNOWN

§ Identity

Operator
Country
US
Launch date
2026-01-12
Launch site
AFETR
Launch vehicle
Mass (kg)
RCS (m²)

Purposes: comms

External: N2YO · Heavens-Above · Gunter

§ Orbital elements

Epoch: 2026-09-19T22:19:30.651168Z

Period
94.27 min
Inclination
42.9980°
Eccentricity
0.0000431
Mean motion
15.27593273 rev/d
Perigee alt
482.7 km
Apogee alt
483.3 km
Semi-major
6,861.1 km
B*
5.9889e-4
RAAN
220.9588°
Arg perigee
217.5898°
Mean anomaly
142.4924°
Rev number
3,839

§ Raw data

STARLINK-364641 67428U 26005AA  26262.93021587  .00016261  00000+0  59889-3 0  99902 67428  42.9980 220.9588 0000431 217.5898 142.4924 15.27593273 38396

JSON: /api/v1/satellites/67428 · /tle

For live sub-satellite position, see the globe view (requires WebGL).

§ Visibility from observer

Set your observer location to see the next 7 days of passes ≥ 10°. The values pass through the URL so the page stays shareable.

No JS? Fill the form by hand. The geolocation button needs JavaScript.